Regional Weather Roundup
Issued by NWS Charleston, WV

Home | Current Version | Previous Version | Graphics & Text | Print | Product List | Glossary On
Versions: 1 2 3 4 5 6 7 8 9 10 11 12 13 14 15 16 17 18 19 20 21 22 23 24 25 26 27 28 29 30 31 32 33 34 35 36 37 38 39 40 41 42 43 44 45 46 47 48 49 50
000
ASUS41 KRLX 051910
RWRRLX
West Virginia Regional Weather Roundup
National Weather Service Charleston WV
300 PM EDT SUN JUL 05 2015

Note: "fair" indicates few or no clouds below 12,000 feet with no
significant weather and/or obstructions to visibility.

WVZ003-052000-
Northern Panhandle of West Virginia

CITY           SKY/WX    TMP DP  RH WIND       PRES   REMARKS
WHEELING       PTSUNNY   80  60  50 E8        30.11F
$$

WVZ009-052000-
Northwest West Virginia

CITY           SKY/WX    TMP DP  RH WIND       PRES   REMARKS
PARKERSBURG    PTSUNNY   82  65  56 VRB3      30.11F
$$

WVZ006-052000-
Western West Virginia

CITY           SKY/WX    TMP DP  RH WIND       PRES   REMARKS
HUNTINGTON     CLOUDY    75  69  81 NE3       30.06F
$$

WVZ015-052000-
West Central West Virginia

CITY           SKY/WX    TMP DP  RH WIND       PRES   REMARKS
CHARLESTON     TSTM      81  69  67 E9        30.06F
$$

WVZ022-031-052000-
North Central West Virginia

CITY           SKY/WX    TMP DP  RH WIND       PRES   REMARKS
CLARKSBURG     PTSUNNY   83  65  54 NE7       30.10F
MORGANTOWN     MOSUNNY   84  60  44 VRB6      30.11F
$$

WVZ025-035-042-045-052000-
Southern West Virginia

CITY           SKY/WX    TMP DP  RH WIND       PRES   REMARKS
BECKLEY        MOSUNNY   79  64  60 SE12      30.13F
LOGAN            N/A     81  68  65 N6        30.03F
BLUEFIELD      MOSUNNY   77  65  66 SE9       30.15F
LEWISBURG      MOSUNNY   78  64  61 SE8       30.16F
$$

WVZ047-052000-
Northern Mountains of West Virginia

CITY           SKY/WX    TMP DP  RH WIND       PRES   REMARKS
ELKINS         CLOUDY    77  64  64 SE3       30.15F
$$

WVZ052-052000-
Eastern Panhandle of West Virginia

CITY           SKY/WX    TMP DP  RH WIND       PRES   REMARKS
MARTINSBURG    MOSUNNY   82  64  54 E5        30.14F
PETERSBURG     CLOUDY    81  64  56 S5        30.13S
$$



USA.gov is the U.S. government's official web portal to all federal, state and local government web resources and services.